Preview of NWS' New Version of Forecast
This preview is not operational and should not be used for support decisions.

Regional Weather Roundup (RWR)

Issued by National Weather Service (NWS)

                            
000
ASUS44 KMEG 162300
RWRTN 
TENNESSEE HOURLY STATE WEATHER ROUNDUP
NATIONAL WEATHER SERVICE MEMPHIS TN
600 PM CDT SUN JUN 16 2019

TNZ002-004-019-021-049-052-054-088>092-170000-
WEST TENNESSEE
  
CITY           SKY/WX    TMP DP  RH WIND       PRES   REMARKS
MEMPHIS INTL   PTSUNNY   83  72  69 SW15G21   29.87R                  
NWS MEMPHIS      N/A     84 N/A N/A MISG        N/A                   
JACKSON        FAIR      82  70  66 S16G25    29.86R                  
DYERSBURG      PTSUNNY   84  72  67 SW7       29.85R                  
$$

TNZ008-025-027-028-033-062-065-066-170000-
NORTH MIDDLE TENNESSEE
  
CITY           SKY/WX    TMP DP  RH WIND       PRES   REMARKS
NASHVILLE      PTSUNNY   90  67  46 SW13G24   29.86F HX  93           
CLARKSVILLE    FAIR      87  69  54 SW18G25   29.82F HX  91           
SMYRNA         FAIR      88  70  55 S12G17    29.88F HX  93           
CROSSVILLE     PTSUNNY   70  64  81 MISG      30.00S THUNDER          
$$

TNZ061-075-076-078-094-096-097-170000-
SOUTH MIDDLE TENNESSEE
  
CITY           SKY/WX    TMP DP  RH WIND       PRES   REMARKS
$$

TNZ017-018-042-046-047-170000-
NORTHEAST TENNESSEE
  
CITY           SKY/WX    TMP DP  RH WIND       PRES   REMARKS
TRI CITIES     FAIR      86  64  47 SW7       29.98F                  
$$

TNZ012-013-036-069-073-074-170000-
CENTRAL EAST TENNESSEE
  
CITY           SKY/WX    TMP DP  RH WIND       PRES   REMARKS
KNOXVILLE      PTSUNNY   87  67  51 W10       29.93F HX  90           
OAK RIDGE      FAIR      87  69  54 VRB5      29.95F HX  91           
$$

TNZ083-085-099-170000-
SOUTHEAST TENNESSEE
  
CITY           SKY/WX    TMP DP  RH WIND       PRES   REMARKS
CHATTANOOGA    PTSUNNY   89  70  53 S8G16     29.93F HX  94           
$$

SKY/WX REPORTED AS FAIR MEANS FEW OR NO CLOUDS BELOW
12 THOUSAND FEET.